Regional Weather Roundup
Issued by NWS Little Rock, AR

Home | Current Version | Previous Version | Text Only | Print | Product List | Glossary On
Versions: 1 2 3 4 5 6 7 8 9 10 11 12 13 14 15 16 17 18 19 20 21 22 23 24 25 26 27 28 29 30 31 32
000
ASUS44 KLZK 200805
RWRLZK

WEATHER ROUNDUP FOR ARKANSAS
NATIONAL WEATHER SERVICE LITTLE ROCK AR
300 AM CDT FRI OCT 20 2017

NOTE: "FAIR" INDICATES FEW OR NO CLOUDS BELOW 12,000 FEET WITH NO
SIGNIFICANT WEATHER AND/OR OBSTRUCTIONS TO VISIBILITY.

ARZ001-003-010-029-200900-
NORTHWEST ARKANSAS

CITY           SKY/WX    TMP DP  RH WIND       PRES   REMARKS
FAYETTEVILLE   FAIR      58  53  84 S5        30.16S
FORT SMITH     FAIR      56  53  90 E6        30.15F
HARRISON       FAIR      57  50  77 S9        30.18R
BENTONVILLE    FAIR      51  48  89 CALM      30.18S
ROGERS         FAIR      53  49  86 SE7       30.18R
SILOAM SPGS    FAIR      56  50  80 S6        30.17R
HIGHFILL       FAIR      55  50  83 S5        30.17R
$$

ARZ004-005-016-200900-
NORTH CENTRAL ARKANSAS

CITY           SKY/WX    TMP DP  RH WIND       PRES   REMARKS
BATESVILLE     FAIR      57  49  74 SE3       30.20S
FLIPPIN        FAIR      52  49  89 CALM      30.19S
MTN HOME       FAIR      54  51  90 S3        30.17F
$$

ARZ040-041-200900-
WEST CENTRAL ARKANSAS

CITY           SKY/WX    TMP DP  RH WIND       PRES   REMARKS
MENA           FAIR      50  50 100 CALM      30.18S
$$

ARZ009-017-025-026-028-200900-
NORTHEAST ARKANSAS

CITY           SKY/WX    TMP DP  RH WIND       PRES   REMARKS
JONESBORO      FAIR      50  48  93 CALM      30.20S
NEWPORT        FAIR      53  48  83 CALM      30.20S
WALNUT RIDGE   FAIR      49  46  90 CALM      30.20S
BLYTHEVILLE    FAIR      52  50  93 SE3       30.21S
$$

ARZ022-023-033-042-044-200900-
CENTRAL ARKANSAS

CITY           SKY/WX    TMP DP  RH WIND       PRES   REMARKS
LITTLE ROCK    MOCLDY    52  52 100 CALM      30.19S
JACKSONVILLE   FAIR      49  48  96 CALM      30.18S
SEARCY         FAIR      49  49 100 CALM        N/A  FOG
HOT SPRINGS    FAIR      52  51  97 CALM      30.18F
RUSSELLVILLE   FAIR      52  52 100 CALM      30.17S
CLINTON        FAIR      46  46 100 CALM      30.21S
$$

ARZ036-200900-
EAST ARKANSAS

CITY           SKY/WX    TMP DP  RH WIND       PRES   REMARKS
WEST MEMPHIS   FAIR      51  51 100 S3        30.20R
$$

ARZ050-053-066-070-073-200900-
SOUTHWEST ARKANSAS

CITY           SKY/WX    TMP DP  RH WIND       PRES   REMARKS
ARKADELPHIA    FAIR      46  45  96 CALM      30.17F
CAMDEN         FAIR      48  46  93 CALM      30.16F
TEXARKANA      FAIR      57  55  93 SE3       30.16R
EL DORADO      FAIR      52  52 100 CALM      30.16F
DE QUEEN       FAIR      52  52 100 CALM      30.15R FOG
$$

ARZ056-057-069-200900-
SOUTHEAST ARKANSAS

CITY           SKY/WX    TMP DP  RH WIND       PRES   REMARKS
PINE BLUFF     FAIR      49  47  93 CALM      30.18F
STUTTGART      FAIR      57  51  80 SE7       30.19F
MONTICELLO     FAIR      54  51  90 CALM      30.18S

$$






USA.gov is the U.S. government's official web portal to all federal, state and local government web resources and services.